Weather History for Apalachicola, FL

Change the Weather History Date:

Friday, December 28, 2012

  Actual Average Record
Temperature  
Mean Temperature 49 °F 53 °F  
Max Temperature 63 °F 63 °F 76 °F (1987)
Min Temperature 34 °F 43 °F 24 °F (2010)
Degree Days  
Heating Degree Days 16    
Month to date heating degree days 199  
Since 1 July heating degree days 402  
Cooling Degree Days 0    
Month to date cooling degree days 12  
Year to date cooling degree days 2770  
Moisture  
Dew Point 46 °F    
Average Humidity 80    
Maximum Humidity 92    
Minimum Humidity 67    
Precipitation  
Precipitation 0.02 in 0.11 in 1.29 in (1942)
Month to date precipitation 1.47 2.98  
Year to date precipitation 57.10 57.37  
Sea Level Pressure  
Sea Level Pressure 30.00 in    
Wind  
Wind Speed 8 mph (ESE)    
Max Wind Speed 16 mph    
Max Gust Speed 22 mph    
Visibility 9 miles    
Events Rain    
T = Trace of Precipitation, MM = Missing Value Source: NWS Daily Summary

Daily Weather History Graph

Daily Weather History Graph

Search for Another Location

Airport:

Trip Planner

Search our weather history database for the weather conditions in past years. The results will help you decide how hot, cold, wet, or windy it might be!

Date:

Astronomy

Dec. 28, 2012 Rise Set
Actual Time 7:34 AM EST 5:49 PM EST
Civil Twilight 7:08 AM EST 6:15 PM EST
Nautical Twilight 6:38 AM EST 6:45 PM EST
Astronomical Twilight 6:09 AM EST 7:14 PM EST
Moon 6:21 PM EST (12/28) 7:31 AM EST (12/28)
Length of Visible Light 11h 07m
Length of Day
10h 15m
Full, 100% of the Moon is Illuminated
Dec 28
Full
Jan 4
Last Quarter
Jan 11
New
Jan 18
First Quarter
Jan 26
Full

Hourly Weather History & Observations

Time (EST) Temp. Windchill Dew Point Humidity Pressure Visibility Wind Dir Wind Speed Gust Speed Precip Events Conditions
12:53 AM 37.0 °F - 34.0 °F 89% 30.10 in 10.0 mi Calm Calm - N/A   Clear
1:06 AM 35.6 °F - 33.8 °F 93% 30.10 in 1.8 mi Calm Calm - N/A   Clear
1:17 AM 35.6 °F - 32.0 °F 87% 30.10 in 3.0 mi Calm Calm - N/A   Clear
1:53 AM 37.9 °F 35.5 °F 34.0 °F 86% 30.10 in 10.0 mi NE 3.5 mph - N/A   Clear
2:53 AM 39.0 °F - 36.0 °F 89% 30.10 in 10.0 mi Calm Calm - N/A   Clear
3:53 AM 37.9 °F 33.5 °F 35.1 °F 89% 30.09 in 10.0 mi ENE 5.8 mph - N/A   Clear
4:53 AM 39.9 °F 36.7 °F 36.0 °F 86% 30.10 in 10.0 mi NE 4.6 mph - N/A   Clear
5:53 AM 39.2 °F 35.0 °F 35.6 °F 87% 30.10 in 10.0 mi NE 5.8 mph - N/A   Clear
6:53 AM 39.9 °F 35.8 °F 36.0 °F 86% 30.10 in 10.0 mi NE 5.8 mph - N/A   Clear
7:53 AM 39.9 °F 35.1 °F 36.0 °F 86% 30.11 in 10.0 mi NE 6.9 mph - N/A   Clear
8:53 AM 44.1 °F 40.8 °F 37.9 °F 79% 30.11 in 10.0 mi NE 5.8 mph - N/A   Clear
9:53 AM 48.9 °F - 43.0 °F 80% 30.09 in 10.0 mi East 9.2 mph - N/A   Clear
10:53 AM 55.9 °F - 46.9 °F 72% 30.08 in 10.0 mi East 11.5 mph - N/A   Clear
11:53 AM 59.0 °F - 48.2 °F 67% 30.02 in 10.0 mi ESE 12.7 mph 21.9 mph N/A   Clear
12:53 PM 61.0 °F - 50.0 °F 67% 29.99 in 10.0 mi ESE 11.5 mph 17.3 mph N/A   Clear
1:53 PM 60.1 °F - 50.0 °F 69% 29.95 in 10.0 mi SE 10.4 mph - N/A   Clear
2:53 PM 61.0 °F - 50.0 °F 67% 29.95 in 10.0 mi SE 8.1 mph - N/A   Clear
3:53 PM 60.1 °F - 51.1 °F 72% 29.94 in 10.0 mi ESE 8.1 mph - N/A   Scattered Clouds
4:01 PM 60.8 °F - 51.8 °F 72% 29.94 in 10.0 mi ESE 6.9 mph - N/A   Mostly Cloudy
4:53 PM 59.0 °F - 52.0 °F 78% 29.96 in 10.0 mi ESE 6.9 mph - N/A   Mostly Cloudy
5:09 PM 59.0 °F - 51.8 °F 77% 29.95 in 10.0 mi ESE 6.9 mph - N/A   Mostly Cloudy
5:53 PM 57.9 °F - 52.0 °F 81% 29.94 in 10.0 mi ESE 8.1 mph - N/A   Overcast
6:53 PM 57.9 °F - 53.1 °F 84% 29.93 in 10.0 mi ESE 5.8 mph - N/A   Mostly Cloudy
7:53 PM 59.0 °F - 54.0 °F 83% 29.92 in 10.0 mi ESE 6.9 mph - N/A   Mostly Cloudy
8:53 PM 60.1 °F - 55.0 °F 83% 29.90 in 6.0 mi SE 11.5 mph - 0.00 in Rain Light Rain
9:53 PM 61.0 °F - 57.9 °F 90% 29.88 in 10.0 mi SE 9.2 mph - 0.01 in   Mostly Cloudy
10:42 PM 62.6 °F - 57.2 °F 82% 29.85 in 10.0 mi SE 11.5 mph - N/A   Mostly Cloudy
10:53 PM 62.1 °F - 57.9 °F 86% 29.86 in 10.0 mi SE 12.7 mph - 0.00 in Rain Light Rain
11:10 PM 62.6 °F - 59.0 °F 88% 29.84 in 10.0 mi SE 12.7 mph - 0.00 in   Overcast
11:53 PM 63.0 °F - 60.1 °F 90% 29.82 in 10.0 mi SE 13.8 mph 18.4 mph 0.01 in Rain Light Rain